[TLELIST] Archives

 

[list_settings.list_name] Current TLEs

May 10th 2009 PST

HST 1 20580U 90037B 09128.94296571 +.00000314 +00000-0 +11405-4 0 03938 2 20580 028.4690 358.4107 0003912 241.9618 118.0580 15.00481275843955 ISS (ZARYA) 1 25544U 98067A 09128.92671837 +.00010087 +00000-0 +77746-4 0 08184 2 25544 051.6396 148.2503 0009004 341.2020 099.9723 15.72654908599773 CXO 1 25867U 99040B 09126.83333333 +.00000354 +00000-0 +10000-3 0 03212 2 25867 065.2711 070.5744 7445696 276.1145 359.2721 00.37805562004858 ____________________________________________________________________ These 2-Line ...Continue Reading

[list_settings.list_name] Current TLEs

May 9th 2009 PST

HST 1 20580U 90037B 09129.00948007 .00000322 00000-0 12038-4 0 3835 2 20580 028.4690 357.9770 0003891 242.3697 117.6496 15.00481366843966 ISS (ZARYA) 1 25544U 98067A 09129.18177792 .00010967 00000-0 84087-4 0 8200 2 25544 051.6390 146.9441 0009256 342.4891 103.6997 15.72663671599819 CXO 1 25867U 99040B 09126.83333333 +.00000354 +00000-0 +10000-3 0 03212 2 25867 065.2711 070.5744 7445696 276.1145 359.2721 00.37805562004858 ____________________________________________________________________ These 2-Line ...Continue Reading

[list_settings.list_name] Current TLEs

May 8th 2009 PST

HST 1 20580U 90037B 09127.87873474 .00000284 00000-0 90685-5 0 3824 2 20580 028.4690 005.3534 0003957 231.4264 128.5969 15.00480739843790 ISS (ZARYA) 1 25544U 98067A 09128.17217435 .00009275 00000-0 71912-4 0 8121 2 25544 051.6392 152.1183 0009358 338.5293 147.8843 15.72635674599652 CXO 1 25867U 99040B 09126.83333333 +.00000354 +00000-0 +10000-3 0 03212 2 25867 065.2711 070.5744 7445696 276.1145 359.2721 00.37805562004858 ____________________________________________________________________ These 2-Line ...Continue Reading

[list_settings.list_name] Current TLEs

May 7th 2009 PST

HST 1 20580U 90037B 09126.01632982 .00000301 00000-0 10357-4 0 3812 2 20580 028.4690 017.4997 0003974 212.0697 147.9656 15.00480368843517 ISS (ZARYA) 1 25544U 98067A 09126.18781661 +.00006100 +00000-0 +48978-4 0 08026 2 25544 051.6397 162.2853 0009053 330.1997 074.3697 15.72589856599341 CXO 1 25867U 99040B 09126.83333333 +.00000354 +00000-0 +10000-3 0 03212 2 25867 065.2711 070.5744 7445696 276.1145 359.2721 00.37805562004858 ____________________________________________________________________ These 2-Line ...Continue Reading

[list_settings.list_name] Current TLEs

May 6th 2009 PST

HST 1 20580U 90037B 09126.01632982 .00000301 00000-0 10357-4 0 3812 2 20580 028.4690 017.4997 0003974 212.0697 147.9656 15.00480368843517 ISS (ZARYA) 1 25544U 98067A 09124.90846065 +.00007201 +00000-0 +57012-4 0 07957 2 25544 051.6392 168.8409 0009145 325.2378 031.6545 15.72576788599130 CXO 1 25867U 99040B 09124.20833333 +.00000451 +00000-0 +10000-3 0 03203 2 25867 065.2547 070.6421 7440340 276.1491 001.8577 00.37807416004841 ____________________________________________________________________ These 2-Line ...Continue Reading

[list_settings.list_name] Current TLEs

May 5th 2009 PST

HST 1 20580U 90037B 09124.88558408 .00000279 00000-0 86343-5 0 3807 2 20580 028.4691 024.8750 0003996 201.1661 158.8762 15.00479900843341 ISS (ZARYA) 1 25544U 98067A 09125.18452131 .00006773 00000-0 53896-4 0 7965 2 25544 051.6392 167.4257 0009110 326.3108 154.4835 15.72578807599186 CXO 1 25867U 99040B 09124.20833333 +.00000451 +00000-0 +10000-3 0 03203 2 25867 065.2547 070.6421 7440340 276.1491 001.8577 00.37807416004841 ____________________________________________________________________ These 2-Line ...Continue Reading

[list_settings.list_name] Current TLEs

May 4th 2009 PST

HST 1 20580U 90037B 09122.95666453 +.00000281 +00000-0 +88439-5 0 03938 2 20580 028.4689 037.4568 0003973 182.1657 177.8914 15.00479387843050 ISS (ZARYA) 1 25544U 98067A 09122.87151620 +.00008002 +00000-0 +62918-4 0 07835 2 25544 051.6394 179.2779 0009131 317.8361 019.7035 15.72547345598814 CXO 1 25867U 99040B 09124.20833333 +.00000451 +00000-0 +10000-3 0 03203 2 25867 065.2547 070.6421 7440340 276.1491 001.8577 00.37807416004841 ____________________________________________________________________ These 2-Line ...Continue Reading

[list_settings.list_name] Current TLEs

May 3rd 2009 PST

HST 1 20580U 90037B 09121.95894748 +.00000283 +00000-0 +90262-5 0 03813 2 20580 028.4687 043.9645 0003917 171.6546 188.4107 15.00479109842901 ISS (ZARYA) 1 25544U 98067A 09121.74879828 +.00008183 +00000-0 +64287-4 0 07771 2 25544 051.6394 185.0296 0009050 313.3539 144.0496 15.72528795598643 CXO 1 25867U 99040B 09121.54166667 +.00000447 +00000-0 +10000-3 0 03199 2 25867 065.2465 070.7651 7434646 276.1561 358.7886 00.37805725004833 ____________________________________________________________________ These 2-Line ...Continue Reading

[list_settings.list_name] Current TLEs

May 2nd 2009 PST

HST 1 20580U 90037B 09121.89243294 .00000290 00000-0 95686-5 0 3789 2 20580 028.4687 044.3981 0003915 170.6891 189.3770 15.00479150842899 ISS (ZARYA) 1 25544U 98067A 09122.13064730 .00008206 00000-0 64434-4 0 7784 2 25544 051.6395 183.0729 0009087 314.9390 145.6135 15.72535765598704 CXO 1 25867U 99040B 09121.54166667 +.00000447 +00000-0 +10000-3 0 03199 2 25867 065.2465 070.7651 7434646 276.1561 358.7886 00.37805725004833 ____________________________________________________________________ These 2-Line ...Continue Reading

[list_settings.list_name] Current TLEs

May 1st 2009 PST

HST 1 20580U 90037B 09120.82820089 .00000300 00000-0 10300-4 0 3774 2 20580 028.4685 051.3398 0003901 159.8542 200.2206 15.00478951842732 ISS (ZARYA) 1 25544U 98067A 09120.90148148 .00009021 00000-0 70424-4 0 7729 2 25544 051.6396 189.3708 0009000 309.9180 027.5376 15.72517156598504 CXO 1 25867U 99040B 09118.91666667 +.00000436 +00000-0 +10000-3 0 03188 2 25867 065.2454 070.8642 7426088 276.1961 001.3771 00.37797247004829 ____________________________________________________________________ These 2-Line ...Continue Reading
  • This mailing list is a public mailing list - anyone may join or leave, at any time.
  • This mailing list is announce-only.

International Space Station (ISS) / Hubble Space Telescope (HST) / Chandra X-Ray Observatory Orbital Data via EMAIL

Privacy Policy:

Private list